06.05.2024;07:00;29
06.05.2024;06:00;21
06.05.2024;05:00;15
06.05.2024;04:00;13
06.05.2024;03:00;16
06.05.2024;02:00;19
06.05.2024;01:00;22
06.05.2024;00:00;26
05.05.2024;23:00;43
05.05.2024;22:00;47
05.05.2024;21:00;42
05.05.2024;20:00;30
05.05.2024;19:00;19
05.05.2024;18:00;16
05.05.2024;17:00;19
05.05.2024;16:00;23
05.05.2024;15:00;15
05.05.2024;14:00;7
05.05.2024;13:00;5
05.05.2024;12:00;9
05.05.2024;11:00;5
05.05.2024;10:00;8
05.05.2024;09:00;10
05.05.2024;08:00;10
05.05.2024;07:00;17
05.05.2024;06:00;17
05.05.2024;05:00;10
05.05.2024;04:00;12
05.05.2024;03:00;15
05.05.2024;02:00;12
05.05.2024;01:00;21
05.05.2024;00:00;27
04.05.2024;23:00;29
04.05.2024;22:00;26
04.05.2024;21:00;18
04.05.2024;20:00;10
04.05.2024;19:00;8
04.05.2024;18:00;9
04.05.2024;17:00;6
04.05.2024;16:00;6
04.05.2024;15:00;9
04.05.2024;14:00;10
04.05.2024;13:00;9
04.05.2024;12:00;8
04.05.2024;11:00;12
04.05.2024;10:00;17
04.05.2024;09:00;22
04.05.2024;08:00;26
